�������l�o���
Date,Time,MP-1(��Sv/h),MP-2(��Sv/h),MP-3(��Sv/h),MP-4(��Sv/h),MP-5(��Sv/h),MP-6(��Sv/h),MP-7(��Sv/h),MP-8(��Sv/h),����,����(m/s),���J
2020/08/31,00:00,0.676,0.951,0.613,1.191,0.851,0.384,0.678,0.634,�k�k��,6.4,�L
2020/08/31,00:10,0.678,0.951,0.610,1.193,0.851,0.384,0.679,0.637,�k,6.6,�L
2020/08/31,00:20,0.674,0.951,0.612,1.192,0.852,0.384,0.677,0.636,�k�k��,6.4,�L
2020/08/31,00:30,0.676,0.951,0.612,1.193,0.850,0.386,0.680,0.636,�k,7.2,�L
2020/08/31,00:40,0.674,0.952,0.613,1.189,0.851,0.383,0.677,0.635,�k,6.7,�L
2020/08/31,00:50,0.673,0.951,0.608,1.191,0.851,0.384,0.676,0.634,�k�k��,6.2,�L
2020/08/31,01:00,0.676,0.952,0.611,1.190,0.849,0.384,0.677,0.634,�k�k��,6.1,�L
2020/08/31,01:10,0.673,0.953,0.610,1.189,0.849,0.383,0.676,0.634,�k�k��,7.1,�L
2020/08/31,01:20,0.673,0.950,0.610,1.191,0.850,0.383,0.678,0.635,�k,6.1,�L
2020/08/31,01:30,0.673,0.951,0.609,1.192,0.849,0.384,0.678,0.632,�k,6.6,�L
2020/08/31,01:40,0.674,0.952,0.611,1.192,0.849,0.383,0.677,0.634,�k,7.6,�L
2020/08/31,01:50,0.674,0.951,0.611,1.190,0.848,0.383,0.676,0.634,�k,6.8,�L
2020/08/31,02:00,0.674,0.950,0.610,1.189,0.849,0.384,0.676,0.634,�k,7.0,�L
2020/08/31,02:10,0.674,0.951,0.611,1.189,0.850,0.384,0.677,0.634,�k,6.7,��
2020/08/31,02:20,0.673,0.950,0.611,1.190,0.850,0.383,0.678,0.634,�k,6.1,��
2020/08/31,02:30,0.672,0.950,0.610,1.191,0.850,0.385,0.677,0.635,�k,7.6,��
2020/08/31,02:40,0.673,0.952,0.610,1.191,0.849,0.385,0.678,0.636,�k,7.0,�L
2020/08/31,02:50,0.674,0.952,0.611,1.191,0.850,0.382,0.676,0.635,�k,6.8,�L
2020/08/31,03:00,0.674,0.952,0.610,1.190,0.850,0.384,0.676,0.635,�k,5.6,�L
2020/08/31,03:10,0.674,0.954,0.611,1.190,0.847,0.383,0.678,0.635,�k�k��,5.1,�L
2020/08/31,03:20,0.673,0.954,0.612,1.193,0.849,0.384,0.677,0.634,�k,4.5,�L
2020/08/31,03:30,0.675,0.953,0.612,1.193,0.852,0.383,0.678,0.636,�k,5.2,�L
2020/08/31,03:40,0.673,0.951,0.611,1.191,0.850,0.384,0.678,0.635,�k�k��,5.3,�L
2020/08/31,03:50,0.672,0.952,0.612,1.192,0.847,0.383,0.678,0.634,�k,5.3,�L
2020/08/31,04:00,0.673,0.952,0.610,1.190,0.848,0.385,0.677,0.634,�k,6.1,�L
2020/08/31,04:10,0.673,0.950,0.610,1.189,0.848,0.384,0.677,0.635,�k,7.0,�L
2020/08/31,04:20,0.670,0.951,0.610,1.188,0.850,0.384,0.679,0.635,�k,7.5,�L
2020/08/31,04:30,0.673,0.950,0.613,1.187,0.849,0.383,0.678,0.634,�k�k��,6.9,�L
2020/08/31,04:40,0.673,0.950,0.609,1.188,0.850,0.384,0.676,0.635,�k,6.7,�L
2020/08/31,04:50,0.671,0.954,0.610,1.190,0.847,0.384,0.678,0.635,�k,6.1,�L
2020/08/31,05:00,0.671,0.951,0.610,1.192,0.848,0.384,0.677,0.636,�k,5.4,�L
2020/08/31,05:10,0.674,0.948,0.609,1.187,0.846,0.383,0.678,0.635,�k,5.5,�L
2020/08/31,05:20,0.672,0.951,0.610,1.188,0.846,0.384,0.676,0.634,�k,5.2,�L
2020/08/31,05:30,0.672,0.949,0.610,1.184,0.846,0.382,0.676,0.633,�k,5.5,�L
2020/08/31,05:40,0.672,0.949,0.610,1.188,0.845,0.383,0.677,0.636,�k,6.3,�L
2020/08/31,05:50,0.672,0.947,0.611,1.183,0.846,0.384,0.677,0.634,�k,6.6,�L
2020/08/31,06:00,0.671,0.948,0.610,1.182,0.844,0.384,0.676,0.633,�k,6.4,�L
2020/08/31,06:10,0.671,0.948,0.609,1.185,0.844,0.382,0.676,0.634,�k,6.1,�L
2020/08/31,06:20,0.671,0.946,0.608,1.183,0.845,0.386,0.675,0.635,�k,5.5,�L
2020/08/31,06:30,0.670,0.948,0.610,1.183,0.844,0.384,0.676,0.634,�k,5.5,�L
2020/08/31,06:40,0.674,0.949,0.609,1.185,0.845,0.383,0.675,0.636,�k,5.9,�L
2020/08/31,06:50,0.671,0.946,0.609,1.184,0.845,0.383,0.676,0.634,�k,5.6,�L
2020/08/31,07:00,0.670,0.947,0.608,1.183,0.843,0.383,0.675,0.634,�k,4.9,�L
2020/08/31,07:10,0.669,0.948,0.608,1.183,0.843,0.382,0.675,0.633,�k�k��,4.8,�L
2020/08/31,07:20,0.673,0.946,0.608,1.184,0.845,0.385,0.675,0.634,�k�k��,4.8,�L
2020/08/31,07:30,0.671,0.945,0.608,1.184,0.843,0.384,0.675,0.635,�k�k��,4.8,�L
2020/08/31,07:40,0.672,0.948,0.610,1.184,0.845,0.383,0.677,0.634,�k,4.8,�L
2020/08/31,07:50,0.672,0.949,0.610,1.185,0.846,0.383,0.677,0.636,�k�k��,4.9,�L
2020/08/31,08:00,0.672,0.949,0.610,1.187,0.845,0.382,0.676,0.635,�k�k��,4.3,�L
2020/08/31,08:10,0.673,0.949,0.611,1.184,0.846,0.383,0.676,0.635,�k�k��,4.8,�L
2020/08/31,08:20,0.672,0.950,0.612,1.189,0.847,0.383,0.677,0.634,�k�k��,5.1,�L
2020/08/31,08:30,0.672,0.948,0.610,1.191,0.847,0.383,0.677,0.634,�k�k��,4.9,�L
2020/08/31,08:40,0.672,0.947,0.611,1.186,0.848,0.384,0.678,0.634,�k�k��,5.4,�L
2020/08/31,08:50,0.674,0.945,0.610,1.187,0.848,0.384,0.678,0.634,�k,4.6,�L
2020/08/31,09:00,0.672,0.947,0.610,1.187,0.847,0.383,0.678,0.636,�k,5.7,�L
2020/08/31,09:10,0.672,0.946,0.609,1.186,0.847,0.384,0.677,0.633,�k,5.2,�L
2020/08/31,09:20,0.672,0.947,0.608,1.187,0.848,0.384,0.678,0.635,�k,5.2,�L
2020/08/31,09:30,0.673,0.948,0.609,1.188,0.848,0.384,0.678,0.633,�k,5.9,�L
2020/08/31,09:40,0.672,0.945,0.608,1.189,0.849,0.384,0.677,0.635,�k,6.0,��
2020/08/31,09:50,0.674,0.945,0.609,1.189,0.849,0.382,0.678,0.636,�k,8.7,�L
2020/08/31,10:00,0.673,0.946,0.610,1.188,0.849,0.384,0.677,0.634,�k,8.1,�L
2020/08/31,10:10,0.673,0.948,0.609,1.189,0.848,0.383,0.678,0.634,�k,6.9,�L
2020/08/31,10:20,0.674,0.944,0.612,1.191,0.848,0.382,0.678,0.635,�k,7.0,�L
2020/08/31,10:30,0.674,0.945,0.612,1.188,0.848,0.384,0.677,0.634,�k,7.2,�L
2020/08/31,10:40,0.672,0.946,0.610,1.187,0.846,0.384,0.677,0.632,�k,7.3,�L
2020/08/31,10:50,0.673,0.945,0.610,1.188,0.847,0.383,0.677,0.632,�k,9.2,�L
2020/08/31,11:00,0.674,0.948,0.611,1.187,0.846,0.383,0.677,0.634,�k�k��,10.2,�L
2020/08/31,11:10,0.675,0.944,0.614,1.188,0.845,0.383,0.678,0.634,�k�k��,8.5,�L
2020/08/31,11:20,0.674,0.943,0.611,1.187,0.847,0.384,0.677,0.633,�k�k��,8.1,�L
2020/08/31,11:30,0.672,0.944,0.612,1.187,0.847,0.383,0.679,0.634,�k�k��,8.7,�L
2020/08/31,11:40,0.675,0.945,0.611,1.189,0.847,0.384,0.678,0.635,�k,8.1,�L
2020/08/31,11:50,0.674,0.950,0.612,1.191,0.847,0.385,0.678,0.635,�k,9.0,�L
2020/08/31,12:00,0.672,0.949,0.612,1.188,0.849,0.383,0.680,0.636,�k,9.1,�L
2020/08/31,12:10,0.675,0.951,0.609,1.191,0.848,0.384,0.679,0.634,�k,8.0,�L
2020/08/31,12:20,0.674,0.950,0.610,1.192,0.849,0.383,0.679,0.636,�k,7.9,�L
2020/08/31,12:30,0.675,0.950,0.609,1.190,0.850,0.383,0.678,0.634,�k,8.2,�L
2020/08/31,12:40,0.675,0.950,0.610,1.192,0.849,0.384,0.678,0.634,�k,9.2,�L
2020/08/31,12:50,0.675,0.949,0.610,1.192,0.849,0.384,0.680,0.635,�k,8.1,�L
2020/08/31,13:00,0.673,0.948,0.610,1.187,0.848,0.383,0.680,0.634,�k,7.0,�L
2020/08/31,13:10,0.673,0.950,0.609,1.189,0.846,0.384,0.677,0.633,�k,7.4,�L
2020/08/31,13:20,0.673,0.945,0.609,1.186,0.848,0.384,0.678,0.633,�k�k��,6.6,�L
2020/08/31,13:30,0.674,0.943,0.607,1.187,0.846,0.382,0.678,0.635,�k,8.1,�L
2020/08/31,13:40,0.672,0.945,0.609,1.184,0.847,0.383,0.677,0.634,�k,7.3,�L
2020/08/31,13:50,0.673,0.942,0.607,1.185,0.847,0.383,0.677,0.634,�k,7.9,�L
2020/08/31,14:00,0.673,0.943,0.606,1.187,0.844,0.383,0.678,0.636,�k,7.0,�L
2020/08/31,14:10,0.672,0.941,0.607,1.182,0.845,0.383,0.676,0.634,�k,7.2,�L
2020/08/31,14:20,0.670,0.938,0.608,1.180,0.840,0.382,0.677,0.634,�k,8.1,�L
2020/08/31,14:30,0.670,0.935,0.606,1.181,0.842,0.383,0.676,0.632,�k,8.2,�L
2020/08/31,14:40,0.668,0.936,0.606,1.176,0.843,0.384,0.676,0.634,�k,6.5,�L
2020/08/31,14:50,0.670,0.937,0.605,1.175,0.842,0.384,0.676,0.631,�k,5.4,�L
2020/08/31,15:00,0.665,0.932,0.606,1.170,0.839,0.384,0.676,0.633,�k�k��,5.0,�L
2020/08/31,15:10,0.667,0.931,0.605,1.166,0.835,0.384,0.674,0.633,�k�k��,4.4,�L
2020/08/31,15:20,0.665,0.931,0.606,1.166,0.836,0.384,0.675,0.631,�k,7.1,�L
2020/08/31,15:30,0.660,0.924,0.606,1.163,0.834,0.384,0.673,0.631,�k,6.1,�L
2020/08/31,15:40,0.665,0.932,0.606,1.162,0.833,0.384,0.673,0.631,�k,7.7,�L
2020/08/31,15:50,0.666,0.928,0.606,1.164,0.833,0.383,0.673,0.630,�k�k��,6.4,�L
2020/08/31,16:00,0.667,0.930,0.608,1.163,0.834,0.383,0.673,0.631,�k,6.3,�L
2020/08/31,16:10,0.668,0.934,0.607,1.166,0.837,0.382,0.675,0.632,�k,7.1,�L
2020/08/31,16:20,0.668,0.936,0.607,1.167,0.837,0.383,0.673,0.630,�k,6.1,�L
2020/08/31,16:30,0.667,0.933,0.605,1.169,0.837,0.382,0.673,0.629,�k,6.2,�L
2020/08/31,16:40,0.666,0.935,0.604,1.168,0.835,0.382,0.672,0.630,�k,6.9,�L
2020/08/31,16:50,0.667,0.935,0.603,1.168,0.835,0.383,0.671,0.630,�k,6.8,�L
2020/08/31,17:00,0.666,0.934,0.604,1.165,0.833,0.383,0.672,0.629,�k,6.6,�L
2020/08/31,17:10,0.663,0.932,0.602,1.161,0.834,0.383,0.672,0.629,�k,7.4,�L
2020/08/31,17:20,0.665,0.930,0.602,1.162,0.831,0.382,0.670,0.629,�k,6.3,�L
2020/08/31,17:30,0.663,0.933,0.602,1.164,0.831,0.381,0.670,0.629,�k,7.5,�L
2020/08/31,17:40,0.662,0.929,0.601,1.160,0.830,0.381,0.670,0.629,�k,6.8,�L
2020/08/31,17:50,0.662,0.928,0.601,1.160,0.829,0.380,0.669,0.627,�k,6.7,�L
2020/08/31,18:00,0.661,0.928,0.600,1.158,0.827,0.380,0.668,0.628,�k�k��,7.4,�L
2020/08/31,18:10,0.660,0.927,0.597,1.156,0.827,0.379,0.668,0.628,�k,6.2,�L
2020/08/31,18:20,0.658,0.925,0.598,1.154,0.823,0.377,0.667,0.627,�k,5.8,�L
2020/08/31,18:30,0.657,0.921,0.598,1.152,0.822,0.378,0.667,0.626,�k,5.4,�L
2020/08/31,18:40,0.657,0.921,0.598,1.151,0.822,0.378,0.666,0.625,�k�k��,6.9,�L
2020/08/31,18:50,0.657,0.921,0.597,1.151,0.822,0.378,0.666,0.626,�k,5.7,�L
2020/08/31,19:00,0.657,0.920,0.598,1.151,0.822,0.377,0.667,0.625,�k,5.6,�L
2020/08/31,19:10,0.656,0.922,0.597,1.150,0.821,0.377,0.667,0.623,�k,5.4,�L
2020/08/31,19:20,0.656,0.924,0.597,1.152,0.822,0.376,0.667,0.625,�k�k��,6.8,�L
2020/08/31,19:30,0.656,0.921,0.596,1.151,0.819,0.377,0.665,0.625,�k�k��,7.1,�L
2020/08/31,19:40,0.655,0.919,0.594,1.146,0.817,0.375,0.664,0.625,�k�k��,5.2,�L
2020/08/31,19:50,0.654,0.919,0.594,1.148,0.816,0.375,0.663,0.622,�k�k��,6.0,�L
2020/08/31,20:00,0.651,0.918,0.593,1.149,0.817,0.376,0.662,0.623,�k�k��,5.8,�L
2020/08/31,20:10,0.654,0.915,0.594,1.146,0.815,0.376,0.662,0.622,�k�k��,5.9,�L
2020/08/31,20:20,0.651,0.913,0.593,1.145,0.815,0.375,0.663,0.622,�k�k��,6.2,�L
2020/08/31,20:30,0.652,0.918,0.593,1.145,0.814,0.375,0.661,0.621,�k�k��,6.8,�L
2020/08/31,20:40,0.655,0.918,0.595,1.146,0.816,0.374,0.662,0.623,�k�k��,6.1,�L
2020/08/31,20:50,0.658,0.917,0.596,1.148,0.816,0.377,0.665,0.624,�k�k��,5.4,�L
2020/08/31,21:00,0.656,0.920,0.596,1.151,0.814,0.378,0.663,0.623,�k�k��,5.7,�L
2020/08/31,21:10,0.660,0.919,0.597,1.146,0.813,0.378,0.664,0.624,�k�k��,4.9,�L
2020/08/31,21:20,0.658,0.924,0.598,1.150,0.814,0.377,0.665,0.624,�k�k��,5.3,�L
2020/08/31,21:30,0.661,0.924,0.600,1.148,0.815,0.378,0.664,0.626,�k,5.4,�L
2020/08/31,21:40,0.661,0.926,0.599,1.154,0.817,0.378,0.665,0.626,�k,4.5,�L
2020/08/31,21:50,0.661,0.926,0.599,1.153,0.818,0.379,0.665,0.627,�k,4.2,�L
2020/08/31,22:00,0.663,0.927,0.598,1.159,0.818,0.380,0.666,0.625,�k,4.3,�L
2020/08/31,22:10,0.661,0.925,0.600,1.153,0.819,0.380,0.667,0.627,�k�k��,5.0,�L
2020/08/31,22:20,0.662,0.929,0.598,1.158,0.820,0.379,0.665,0.627,�k�k��,6.1,�L
2020/08/31,22:30,0.662,0.930,0.599,1.158,0.820,0.380,0.666,0.626,�k�k��,6.6,��
2020/08/31,22:40,0.663,0.930,0.598,1.158,0.820,0.378,0.667,0.627,�k�k��,5.7,�L
2020/08/31,22:50,0.662,0.929,0.597,1.162,0.818,0.380,0.669,0.627,�k�k��,6.7,��
2020/08/31,23:00,0.662,0.931,0.598,1.161,0.822,0.378,0.667,0.627,�k�k��,7.2,�L
2020/08/31,23:10,0.663,0.935,0.596,1.166,0.824,0.378,0.665,0.627,�k�k��,6.1,�L
2020/08/31,23:20,0.662,0.933,0.597,1.166,0.825,0.379,0.665,0.627,�k�k��,6.4,�L
2020/08/31,23:30,0.663,0.934,0.598,1.165,0.824,0.378,0.667,0.627,�k�k��,6.4,�L
2020/08/31,23:40,0.664,0.932,0.598,1.166,0.825,0.380,0.668,0.628,�k�k��,6.5,�L
2020/08/31,23:50,0.664,0.934,0.599,1.167,0.826,0.380,0.667,0.627,�k�k��,6.8,�L
